Racine, WI

10:57 AM CST on December 15, 2017 (GMT -0600)
Batten

Weather History for KRAC - May, 2013

Change the Weather History Date:

Wednesday, May 1, 2013

  Actual Average Record
Temperature  
Mean Temperature 64 °F -  
Max Temperature 82 °F 57 °F 86 °F (1957)
Min Temperature 46 °F 41 °F 28 °F (1963)
Degree Days  
Heating Degree Days 1    
Growing Degree Days 14 (Base 50)    
Moisture  
Dew Point 51 °F    
Average Humidity 54    
Maximum Humidity 80    
Minimum Humidity 35    
Precipitation  
Precipitation 0.00 in - - ()
Sea Level Pressure  
Sea Level Pressure 30.09 in    
Wind  
Wind Speed 10 mph (South)    
Max Wind Speed 20 mph    
Max Gust Speed 25 mph    
Visibility 10 miles    
Events      
Averages and records for this station are not official NWS values.
T = Trace of Precipitation, MM = Missing Value Source: NWS Daily Summary

Daily Weather History Graph

Daily Weather History Graph

Search for Another Location

Airport or City:

Trip Planner

Search our weather history database for the weather conditions in past years. The results will help you decide how hot, cold, wet, or windy it might be!

Date:

Astronomy

May. 01, 2013 Rise Set
Actual Time 5:45 AM CDT 7:52 PM CDT
Civil Twilight 5:14 AM CDT 8:23 PM CDT
Nautical Twilight 4:36 AM CDT 9:01 PM CDT
Astronomical Twilight 3:54 AM CDT 9:43 PM CDT
Moon 1:01 AM CDT (5/1) 11:23 AM CDT (5/1)
Length of Visible Light 15h 08m
Length of Day
14h 06m
Waning Gibbous, 59% of the Moon is Illuminated
May 1
Waning Gibbous
May 2
Last Quarter
May 9
New
May 17
First Quarter
May 24
Full

Hourly Weather History & Observations

Time (CDT) Temp. Heat Index Dew Point Humidity Pressure Visibility Wind Dir Wind Speed Gust Speed Precip Events Conditions
1:53 AM 73.0 °F - 57.9 °F 59% 29.96 in 10.0 mi SSW 10.4 mph - N/A   Clear
2:53 AM 72.0 °F - 57.0 °F 59% 29.97 in 10.0 mi SSW 10.4 mph - N/A   Clear
3:53 AM 70.0 °F - 55.9 °F 61% 29.98 in 10.0 mi SSW 8.1 mph - N/A   Clear
4:53 AM 64.9 °F - 53.1 °F 65% 30.00 in 10.0 mi South 4.6 mph - N/A   Clear
5:53 AM 64.9 °F - 54.0 °F 68% 30.02 in 10.0 mi SSW 8.1 mph - N/A   Clear
6:53 AM 69.1 °F - 55.0 °F 61% 30.05 in 10.0 mi SW 5.8 mph - N/A   Clear
7:53 AM 73.9 °F - 55.9 °F 53% 30.06 in 10.0 mi SW 10.4 mph - N/A   Clear
8:53 AM 71.1 °F - 53.1 °F 53% 30.07 in 10.0 mi SSE 6.9 mph - N/A   Clear
9:53 AM 80.1 °F 80.0 °F 54.0 °F 40% 30.09 in 10.0 mi SW 11.5 mph 17.3 mph N/A   Clear
10:53 AM 82.0 °F - 52.0 °F 35% 30.09 in 10.0 mi SW 11.5 mph 17.3 mph N/A   Clear
11:53 AM 77.0 °F - 54.0 °F 45% 30.10 in 10.0 mi SE 10.4 mph - N/A   Clear
12:53 PM 78.1 °F - 54.0 °F 43% 30.09 in 10.0 mi SSE 12.7 mph - N/A   Clear
1:53 PM 77.0 °F - 54.0 °F 45% 30.10 in 10.0 mi SSE 12.7 mph - N/A   Clear
2:53 PM 78.1 °F - 53.1 °F 42% 30.11 in 10.0 mi SSE 11.5 mph - N/A   Clear
3:53 PM 79.0 °F - 51.1 °F 38% 30.11 in 10.0 mi SSE 15.0 mph - N/A   Clear
4:53 PM 77.0 °F - 51.1 °F 40% 30.11 in 10.0 mi SE 11.5 mph - N/A   Clear
5:53 PM 75.0 °F - 51.1 °F 43% 30.11 in 10.0 mi SE 8.1 mph - N/A   Clear
6:53 PM 73.9 °F - 51.1 °F 45% 30.12 in 10.0 mi SE 8.1 mph - N/A   Partly Cloudy
7:53 PM 70.0 °F - 50.0 °F 49% 30.13 in 10.0 mi SSE 5.8 mph - N/A   Mostly Cloudy
8:53 PM 50.0 °F - 43.0 °F 77% 30.18 in 5.0 mi North 15.0 mph - N/A   Haze
9:53 PM 48.0 °F - 42.1 °F 80% 30.20 in 7.0 mi North 12.7 mph 18.4 mph N/A   Partly Cloudy
10:53 PM 46.9 °F - 39.0 °F 74% 30.20 in 10.0 mi North 13.8 mph 23.0 mph N/A   Clear
11:53 PM 46.9 °F - 39.0 °F 74% 30.21 in 10.0 mi North 19.6 mph 25.3 mph N/A   Clear